User: anonymous
Location: Unspecified
(0.0000°N, 0.0000°E)
Time: 16:01:31
(UTC+00:00)
Language:

USA 200 - Orbit

View from above orbital plane
View from above orbital plane
View from above satellite
View from above satellite

Ground track
Ground track

The orbit data is extracted from the following two-line orbital elements,

1 32706U 08010A   14215.55276894 -.00000266  00000-0  00000-0 0    04
2 32706  63.1281 121.5992 6899365 267.8291  18.6056  2.00611463    00
Epoch (UTC): 03 August 2014 13:15:59
Eccentricity: 0.6899365
inclination: 63.1281°
perigee height: 1856 km
apogee height: 38499 km
right ascension of ascending node: 121.5992°
argument of perigee: 267.8291°
revolutions per day: 2.00611463
mean anomaly at epoch: 18.6056°
orbit number at epoch: 0

The dashed part of the orbit path shows where the satellite is in the earth's shadow,  

DLR